Regional Weather Roundup
Issued by NWS Kansas City/Pleasant Hill, MO

Home | Current Version | Previous Version | Text Only | Print | Product List | Glossary On
Versions: 1 2 3 4 5 6 7 8 9 10 11 12 13 14 15 16 17 18 19 20 21 22 23 24 25 26 27 28 29 30 31 32 33 34 35 36 37 38 39 40 41 42 43 44 45 46 47 48 49 50
000
ASUS43 KEAX 192211
RWREAX

WEATHER ROUNDUP FOR EASTERN KANSAS AND NORTHWEST MISSOURI
NATIONAL WEATHER SERVICE KANSAS CITY/PLEASANT HILL MO
400 PM CST FRI DEC 19 2014

KSZ040-057-103>105-MOZ028-029-037-043-192300-
...KANSAS CITY METROPOLITAN AREA...

CITY           SKY/WX    TMP DP  RH WIND       PRES   REMARKS
K.C. INTL      CLOUDY    32  30  92 SW3       30.20F FOG
K.C. DOWNTOWN  CLOUDY    35  31  85 CALM      30.21F
LEES SUMMIT    CLOUDY    34  30  85 CALM      30.21S
OLATHE - IXD   CLOUDY    33  30  88 CALM      30.20F
OLATHE - OJC   CLOUDY    33  31  92 CALM      30.19S
LAWRENCE       CLOUDY    34  29  82 CALM      30.21S

$$

MOZ001>008-011>017-020>025-030>033-038>040-044>046-053-054-192300-
...NORTHERN AND CENTRAL MISSOURI...

CITY           SKY/WX    TMP DP  RH WIND       PRES   REMARKS
ST. JOSEPH     CLOUDY    32  30  92 SW7       30.22S WCI  26
MOSBY          CLOUDY    34  32  93 CALM      30.22S
WARRENSBURG    CLOUDY    36  32  87 CALM      30.22R FOG
WHITEMAN AFB   CLOUDY    37  33  87 SE3       30.21R
CLINTON        CLOUDY    37  36  93 CALM      30.21F
SEDALIA        CLOUDY    37  34  89 SE5       30.22S WCI  33
WARSAW         NOT AVBL
MARSHALL       CLOUDY    39  36  87 S3        30.23S FOG
CHILLICOTHE      N/A     34  30  85 CALM      30.23F
MOBERLY        CLOUDY    36  28  75 E7        30.24  HAZE    WCI  30
KIRKSVILLE     CLOUDY    32  30  92 E7        30.23F FOG     WCI  26

$$

MOZ041-047>049-056>058-063>065-088>090-097-192300-
...EASTERN AND SOUTHERN MISSOURI...

CITY           SKY/WX    TMP DP  RH WIND       PRES   REMARKS
ST. LOUIS INTL CLOUDY    38  27  64 CALM      30.27R
SPIRIT OF STL  CLOUDY    36  29  75 CALM      30.26S
COLUMBIA       CLOUDY    36  32  85 E7        30.22S WCI  30
JEFFERSON CITY CLOUDY    38  31  76 E5        30.24S WCI  34
HANNIBAL       CLOUDY    34  25  69 CALM      30.27R
ROLLA          CLOUDY    35  31  85 SE7       30.19F WCI  29
LEBANON        CLOUDY    36  36 100 E5        30.19S FOG     WCI  32
OSAGE BEACH    CLOUDY    37  32  81 E6        30.21S WCI  33
SPRINGFIELD    CLOUDY    40  36  86 E5        30.17S
BRANSON        FOG       37  37 100 E5        30.19S VSB 1   WCI  34
NEVADA         CLOUDY    36  36 100 CALM      30.21S FOG
JOPLIN         CLOUDY    39  38  96 CALM      30.19S FOG
WEST PLAINS    CLOUDY    35  32  88 E5        30.20S WCI  31

$$

IAZ060-094-KSZ022-034>040-054-083-096-NEZ052-066-093-192300-
...KANSAS...SOUTHEAST NEBRASKA AND IOWA...

CITY           SKY/WX    TMP DP  RH WIND       PRES   REMARKS
TOPEKA         CLOUDY    33  28  81 SW7       30.21F WCI  27
MANHATTAN      CLOUDY    34  30  85 S3        30.18S
EMPORIA        CLOUDY    32  28  85 CALM      30.19R
CHANUTE        CLOUDY    35  34  96 N3        30.20S FOG
WICHITA        CLOUDY    37  32  82 S5        30.18S WCI  33
OMAHA          DRIZZLE   32  29  88 S13       30.18S WCI  22
LINCOLN        CLOUDY    34  30  85 S9        30.15S WCI  27
FALLS CITY     CLOUDY    31  27  85 S8        30.19S WCI  23
LAMONI         CLOUDY    32  29  88 S6        30.20S FOG     WCI  26
DES MOINES     CLOUDY    33  28  81 SE8       30.22S WCI  26

$$



USA.gov is the U.S. government's official web portal to all federal, state and local government web resources and services.